Notices

What's New in latest Release from April 7th, 2021:

- Updated Glossary, including Speed of Maximum Gust, and Total Hourly Precipitation

- Updated national and regional climate services offices contacts and prices information

- Addition of station inventory lists for 1981-2010, 1971-2000, and 1961-1990 Normals.

If you haven't already, please take our survey and provide feedback about our website: https://eccc.sondage-survey.ca/f/LanguageSelection.aspx?s=442ca660-fcf1-47c0-95a9-59707d6fd709

Hourly Data Report for June 05, 2015

KELOWNA UBCO
BRITISH COLUMBIA

49°56'26.700" N
119°24'00.760" W
456.00 m
1123996
71644
VKU

Download Data

Hourly Data (June 2015)
Hourly Data Report for June 5, 2015
TIME
LST
Temp Definition
°C
Dew Point Definition
°C
Rel Hum Definition
%
Precip. Amount Definition
mm

Wind Dir Definition
10's deg

Wind Spd Definition
km/h
Visibility Definition
km
Stn Press Definition
kPa
Hmdx Definition


Wind Chill Definition


Weather Definition


00:00 12.9 11.5 91 0.0       96.58     LegendNANA
01:00 11.9 10.7 93 0.0       96.61     LegendNANA
02:00 11.8 10.7 94 0.0       96.62     LegendNANA
03:00 10.6 9.6 94 0.0       96.62     LegendNANA
04:00 10.2 9.3 94 0.0       96.66     LegendNANA
05:00 11.6 10.1 90 0.0       96.70     LegendNANA
06:00 13.4 10.6 83 0.0       96.72     LegendNANA
07:00 15.6 11.5 76 0.0       96.74     LegendNANA
08:00 17.8 13.6 76 0.0       96.74     LegendNANA
09:00 18.2 11.9 67 0.0       96.72     LegendNANA
10:00 19.9 12.2 61 0.0       96.66     LegendNANA
11:00 20.8 12.3 58 0.0       96.58     LegendNANA
12:00 22.8 12.7 53 0.0       96.51 25   LegendNANA
13:00 25.0 11.9 44 0.0       96.44 27   LegendNANA
14:00 25.9 8.8 34 0.0       96.36 27   LegendNANA
15:00 25.9 7.7 31 0.0       96.31 26   LegendNANA
16:00 26.8 9.0 33 0.0       96.28 28   LegendNANA
17:00 26.7 9.0 33 0.0       96.24 28   LegendNANA
18:00 26.2 8.8 33 0.0       96.20 27   LegendNANA
19:00 23.9 10.4 42 0.0       96.19 25   LegendNANA
20:00 20.8 11.6 56 0.0       96.18     LegendNANA
21:00 18.3 11.1 63 0.0       96.20     LegendNANA
22:00 16.7 12.2 75 0.0       96.19     LegendNANA
23:00 16.6 10.7 68 0.0       96.21     LegendNANA

Notes on Data Quality.

Legend

  • E = Estimated
  • M = Missing
  • NA = Not Available*
  • [empty] = Indicates an unobserved value
Date modified: